STARLINK-11294, 61054

Orbit data source: Space-Track

STARLINK-11294, 61054 is a payload satellite owned by SpaceX/Seattle (US) in LEO that was launched on Fri, 13 Sep 2024 UTC via an FALCON 9 launch vehicle from the Air Force Western Test Range (AFWTR). Payload-class satellites include a variety of spacecraft equipped with specific instruments for various scientific and technological missions. These include communications satellites like Starlink; space stations such as the ISS; scientific satellites like the Hubble; Earth observation satellites from companies like Planet Labs, Umbra, and HawkEye 360; GPS; miniature CubeSats for education and research; and military/defense satellites.

Loading next visibility...
Identifier
61054, 2024-164E
Orbit
LEO
Country
Flag of USUS
Related business
Manufacturer
SpaceX/Seattle
Mission
Operational Commercial Communications
Bus & Motor
STARLINK V2MD, Unknown motor
Mass
960 kg wet, ~910 kg dry
Launch date (UTC)
2024-09-13 (2 years ago)
Launch vehicle
FALCON 9
Launch site
Air Force Western Test Range (AFWTR)
Object type
Payload
Rocket body
Debris
Shape & HBR
Box + 2 Pan, 18.1 m
Radar Cross Section
36.964 m², Large (>1 m²)

Expand to show TLE details & history
Last TLE update: 14 hours ago

TLE from 14 hours ago
0 STARLINK-11294
1 61054U 24164E   26171.27315325 -.00001592  00000-0 -82884-5 0  9992
2 61054  53.1593 165.3585 0001087  82.8295 277.2846 15.69693711101531
Epoch: 2026-06-20T06:33Z
TLE epoch observation values (Epoch: 2026-06-20T06:33:20.440Z)
Latitude
-0.00008°
Longitude
158.53313°
Altitude
360.596 km
Speed
7.694 km/s
True Right ascension
11h 01m 26s
True Declination
0° 00' 00"
Sunlit
Object was in daylight at epoch
Visualization orbit readout
Latitude
Unknown
Longitude
Unknown
Altitude
Unknown
Speed
Unknown
Apparent Right ascension
Unknown
Apparent Declination
Unknown
Sunlit
N/A
Visualization observer readout
Local Sidereal Time
07:17:54
Azimuth
Unknown
Elevation
Unknown
Doppler factor
Unknown
Orbital elements
Apogee altitude
360.767 km
Perigee altitude
359.302 km
Semi-major axis
6,738.171 km
Eccentricity
0.00011
Inclination
53.1593°
RAAN
165.3585°
Arg. of periapsis
82.8295°
True anomaly
277.27224°
Mean anomaly
277.2846°
Eccentric anomaly
277.27842°
Mean motion
3.92401 °/min
Orbital period
91.74 mins
BSTAR
-0.0000082884
Loading maneuver chart data...
Computing Atmospheric mass density...
Loading historical data...
Loading historical data...
Loading historical data...
Loading historical data...
Loading historical data...
Loading historical data...
Loading historical data...

Documentation

Showing up to 5 results
|